DLH999 LGKO-LBSF

Flight info

Callsign DLH999
Flight time 1h 22m
Altitude 40000
Route LARKI3A LARKI UL609 MES UG18 GIKAS UN133 PEREN UL863 EVIVI Y94 VANET VANET6D
Aircraft A339/H-SADE1E2E3GHIJ3J5M1P2RWXY/LB2D1

Departure

Time 2026-05-04 14:38
Airport Kos International Airport "Ippokratis" (LGKO)

Arrival

Time 2026-05-04 16:01
Airport Sofia Airport (LBSF)
Time Latitude Longitude Altitude Speed Heading
2026-05-04 14:21 36.80044 27.08929 409 ft 0 kts 68°
2026-05-04 14:21 36.80044 27.08928 409 ft 0 kts 68°
2026-05-04 14:28 36.80044 27.08927 417 ft 0 kts 68°
2026-05-04 14:32 36.80043 27.08925 417 ft 1 kts 69°
2026-05-04 14:32 36.80038 27.08910 407 ft 2 kts 112°
2026-05-04 14:32 36.80040 27.08899 407 ft 0 kts 144°
2026-05-04 14:34 36.80022 27.08915 409 ft 13 kts 144°
2026-05-04 14:34 36.79860 27.08988 410 ft 27 kts 187°
2026-05-04 14:34 36.79668 27.08989 409 ft 35 kts 178°
2026-05-04 14:35 36.79497 27.09087 409 ft 33 kts 149°
2026-05-04 14:35 36.79252 27.09274 401 ft 50 kts 148°
2026-05-04 14:35 36.78922 27.09531 393 ft 50 kts 149°
2026-05-04 14:35 36.78826 27.09602 393 ft 0 kts 149°
2026-05-04 14:36 36.78785 27.09632 392 ft 16 kts 149°
2026-05-04 14:36 36.78690 27.09703 392 ft 2 kts 149°
2026-05-04 14:36 36.78625 27.09751 393 ft 20 kts 149°
2026-05-04 14:36 36.78535 27.09818 390 ft 0 kts 149°
2026-05-04 14:37 36.78530 27.09839 390 ft 7 kts 109°
2026-05-04 14:37 36.78534 27.09859 390 ft 3 kts 71°
2026-05-04 14:37 36.78525 27.09831 390 ft 1 kts 24°
2026-05-04 14:38 36.78611 27.09795 392 ft 29 kts 322°
2026-05-04 14:38 36.78883 27.09559 395 ft 76 kts 328°
2026-05-04 14:38 36.79557 27.09044 410 ft 146 kts 328°
2026-05-04 14:38 36.80478 27.08329 1077 ft 152 kts 329°
2026-05-04 14:39 36.81359 27.07648 2126 ft 148 kts 328°
2026-05-04 14:39 36.82187 27.06777 2787 ft 169 kts 304°
2026-05-04 14:39 36.82447 27.05244 3493 ft 198 kts 275°
2026-05-04 14:40 36.82588 27.01614 4750 ft 224 kts 297°
2026-05-04 14:40 36.83368 26.99856 5226 ft 239 kts 307°
2026-05-04 14:40 36.84341 26.98128 5968 ft 245 kts 309°
2026-05-04 14:40 36.85343 26.96373 6726 ft 251 kts 308°
2026-05-04 14:41 36.86319 26.94578 7506 ft 255 kts 307°
2026-05-04 14:41 36.87290 26.92711 8338 ft 258 kts 306°
2026-05-04 14:41 36.89224 26.88864 9995 ft 266 kts 304°
2026-05-04 14:42 36.91298 26.84701 10755 ft 303 kts 304°
2026-05-04 14:42 36.92451 26.82395 11121 ft 319 kts 304°
2026-05-04 14:42 36.93630 26.80029 11819 ft 322 kts 305°
2026-05-04 14:43 36.94818 26.77638 12561 ft 326 kts 305°
2026-05-04 14:43 36.96017 26.75222 13261 ft 329 kts 305°
2026-05-04 14:43 36.97459 26.73006 13909 ft 328 kts 322°
2026-05-04 14:43 36.99421 26.71592 14567 ft 327 kts 341°
2026-05-04 14:44 37.01668 26.71153 15179 ft 331 kts
2026-05-04 14:44 37.03932 26.71755 15787 ft 338 kts 20°
2026-05-04 14:44 37.06020 26.73175 16405 ft 344 kts 28°
2026-05-04 14:44 37.08125 26.74616 17005 ft 346 kts 23°
2026-05-04 14:45 37.10364 26.75762 17576 ft 349 kts 17°
2026-05-04 14:45 37.12700 26.76633 18213 ft 351 kts 13°
2026-05-04 14:45 37.15093 26.77342 18771 ft 354 kts 11°
2026-05-04 14:45 37.17494 26.77978 19255 ft 359 kts 10°
2026-05-04 14:46 37.19955 26.78608 19816 ft 362 kts 10°
2026-05-04 14:46 37.22438 26.79244 20346 ft 367 kts 10°
2026-05-04 14:46 37.24955 26.79897 20878 ft 371 kts 10°
2026-05-04 14:46 37.27501 26.80564 21407 ft 375 kts 10°
2026-05-04 14:47 37.30074 26.81242 21972 ft 379 kts 10°
2026-05-04 14:47 37.32664 26.81927 22513 ft 383 kts 10°
2026-05-04 14:47 37.35312 26.82291 23007 ft 384 kts 357°
2026-05-04 14:47 37.37921 26.81778 23324 ft 386 kts 343°
2026-05-04 14:48 37.40372 26.80425 23248 ft 386 kts 329°
2026-05-04 14:48 37.42462 26.78316 22864 ft 386 kts 316°
2026-05-04 14:48 37.44270 26.75834 22348 ft 383 kts 313°
2026-05-04 14:48 37.46064 26.73408 21989 ft 377 kts 316°
2026-05-04 14:49 37.47954 26.71116 21746 ft 378 kts 319°
2026-05-04 14:49 37.49942 26.68921 22063 ft 380 kts 321°
2026-05-04 14:49 37.51972 26.66789 22745 ft 380 kts 321°
2026-05-04 14:49 37.54027 26.64673 23296 ft 384 kts 322°
2026-05-04 14:50 37.56107 26.62544 23812 ft 388 kts 322°
2026-05-04 14:50 37.58214 26.60383 24304 ft 391 kts 322°
2026-05-04 14:50 37.60336 26.58203 24766 ft 395 kts 322°
2026-05-04 14:50 37.62474 26.56002 25241 ft 397 kts 322°
2026-05-04 14:51 37.64606 26.53801 25950 ft 393 kts 323°
2026-05-04 14:51 37.66675 26.51662 26818 ft 385 kts 323°
2026-05-04 14:51 37.68725 26.49538 27723 ft 377 kts 323°
2026-05-04 14:51 37.70728 26.47464 28659 ft 367 kts 324°
2026-05-04 14:52 37.72675 26.45446 29625 ft 356 kts 324°
2026-05-04 14:52 37.74511 26.43540 30498 ft 344 kts 324°
2026-05-04 14:52 37.76372 26.41612 31380 ft 330 kts 324°
2026-05-04 14:52 37.78111 26.39811 32255 ft 316 kts 324°
2026-05-04 14:53 37.79766 26.38095 33162 ft 299 kts 323°
2026-05-04 14:53 37.81326 26.36482 34067 ft 280 kts 323°
2026-05-04 14:53 37.82818 26.34946 34483 ft 277 kts 323°
2026-05-04 14:53 37.84346 26.33371 34323 ft 294 kts 322°
2026-05-04 14:54 37.85997 26.31655 33923 ft 320 kts 322°
2026-05-04 14:54 37.87709 26.29857 34247 ft 320 kts 322°
2026-05-04 14:54 37.89414 26.28046 34585 ft 319 kts 321°
2026-05-04 14:54 37.91126 26.26233 34751 ft 325 kts 322°
2026-05-04 14:55 37.94729 26.22520 34888 ft 343 kts 322°
2026-05-04 14:55 37.98524 26.18582 35021 ft 361 kts 322°
2026-05-04 14:56 38.02509 26.14417 35174 ft 380 kts 322°
2026-05-04 14:56 38.06683 26.10044 35323 ft 398 kts 322°
2026-05-04 14:57 38.11031 26.05479 35725 ft 408 kts 321°
2026-05-04 14:57 38.13231 26.03168 36042 ft 411 kts 321°
2026-05-04 14:57 38.15455 26.00829 36087 ft 420 kts 321°
2026-05-04 14:58 38.20054 25.95987 36091 ft 439 kts 321°
2026-05-04 14:58 38.24021 25.91805 36073 ft 451 kts 321°
2026-05-04 14:59 38.29775 25.85999 36074 ft 451 kts 324°
2026-05-04 15:00 38.37301 25.78784 36109 ft 453 kts 323°
2026-05-04 15:00 38.39805 25.76351 36316 ft 453 kts 323°
2026-05-04 15:00 38.42299 25.73917 36564 ft 452 kts 323°
2026-05-04 15:01 38.46435 25.69869 36983 ft 450 kts 323°
2026-05-04 15:01 38.48916 25.67440 37216 ft 449 kts 323°
2026-05-04 15:01 38.51394 25.65014 37464 ft 448 kts 323°
2026-05-04 15:01 38.53863 25.62595 37695 ft 447 kts 323°
2026-05-04 15:02 38.56332 25.60174 37930 ft 447 kts 323°
2026-05-04 15:02 38.58800 25.57752 38170 ft 446 kts 323°
2026-05-04 15:02 38.61264 25.55332 38423 ft 445 kts 322°
2026-05-04 15:02 38.63679 25.52956 38653 ft 444 kts 322°
2026-05-04 15:03 38.66130 25.50544 38851 ft 443 kts 322°
2026-05-04 15:03 38.68570 25.48139 39022 ft 443 kts 322°
2026-05-04 15:03 38.71014 25.45729 39171 ft 443 kts 322°
2026-05-04 15:03 38.73461 25.43314 39301 ft 444 kts 322°
2026-05-04 15:04 38.75908 25.40896 39446 ft 444 kts 322°
2026-05-04 15:04 38.78357 25.38475 39585 ft 445 kts 322°
2026-05-04 15:04 38.80809 25.36048 39723 ft 445 kts 322°
2026-05-04 15:04 38.83266 25.33614 39866 ft 445 kts 322°
2026-05-04 15:05 38.85716 25.31185 39986 ft 446 kts 322°
2026-05-04 15:05 38.88176 25.28744 40077 ft 446 kts 322°
2026-05-04 15:05 38.93076 25.23875 40083 ft 445 kts 322°
2026-05-04 15:06 38.97973 25.18998 40086 ft 445 kts 322°
2026-05-04 15:07 39.05298 25.11691 40085 ft 445 kts 322°
2026-05-04 15:07 39.10188 25.06802 40085 ft 446 kts 322°
2026-05-04 15:08 39.15095 25.01886 40081 ft 446 kts 322°
2026-05-04 15:08 39.19989 24.96974 40082 ft 446 kts 322°
2026-05-04 15:09 39.24884 24.92055 40085 ft 446 kts 322°
2026-05-04 15:09 39.29782 24.87125 40084 ft 446 kts 322°
2026-05-04 15:10 39.37079 24.79764 40084 ft 446 kts 322°
2026-05-04 15:11 39.44418 24.72341 40080 ft 446 kts 322°
2026-05-04 15:11 39.49402 24.67539 40091 ft 446 kts 327°
2026-05-04 15:12 39.54840 24.63663 40078 ft 447 kts 334°
2026-05-04 15:12 39.60447 24.60160 40070 ft 447 kts 333°
2026-05-04 15:13 39.66039 24.56626 40073 ft 447 kts 334°
2026-05-04 15:13 39.71638 24.53093 40077 ft 447 kts 334°
2026-05-04 15:14 39.77242 24.49556 40086 ft 448 kts 334°
2026-05-04 15:14 39.82811 24.46037 40064 ft 448 kts 334°
2026-05-04 15:15 39.88421 24.42484 40064 ft 448 kts 334°
2026-05-04 15:15 39.94024 24.38929 40084 ft 448 kts 334°
2026-05-04 15:16 40.02437 24.33579 40076 ft 448 kts 334°
2026-05-04 15:17 40.10846 24.28217 40050 ft 448 kts 334°
2026-05-04 15:17 40.19253 24.22841 40066 ft 448 kts 334°
2026-05-04 15:18 40.24847 24.19255 40066 ft 448 kts 334°
2026-05-04 15:19 40.33214 24.13881 40055 ft 448 kts 334°
2026-05-04 15:19 40.41630 24.08459 40046 ft 448 kts 334°
2026-05-04 15:20 40.47231 24.04842 40043 ft 448 kts 334°
2026-05-04 15:20 40.52828 24.01221 40048 ft 448 kts 334°
2026-05-04 15:21 40.58424 23.97594 40046 ft 449 kts 334°
2026-05-04 15:22 40.66862 23.92247 40040 ft 449 kts 335°
2026-05-04 15:22 40.75329 23.86945 40040 ft 449 kts 335°
2026-05-04 15:23 40.80885 23.83443 40045 ft 449 kts 335°
2026-05-04 15:23 40.86521 23.79883 40047 ft 449 kts 335°
2026-05-04 15:24 40.97783 23.72748 40043 ft 449 kts 335°
2026-05-04 15:25 41.03435 23.69158 40048 ft 449 kts 335°
2026-05-04 15:26 41.11890 23.63773 40048 ft 449 kts 335°
2026-05-04 15:26 41.20344 23.58374 40051 ft 449 kts 335°
2026-05-04 15:27 41.28770 23.52973 40054 ft 450 kts 335°
2026-05-04 15:28 41.37299 23.47809 40055 ft 449 kts 341°
2026-05-04 15:29 41.46458 23.45290 40063 ft 449 kts 355°
2026-05-04 15:30 41.68314 23.44147 40061 ft 449 kts 357°
2026-05-04 15:31 41.77697 23.43671 40076 ft 450 kts 357°
2026-05-04 15:32 41.93317 23.42879 40090 ft 449 kts 358°
2026-05-04 15:34 42.08942 23.42082 40092 ft 447 kts 358°
2026-05-04 15:34 42.18227 23.41606 40100 ft 448 kts 358°
2026-05-04 15:35 42.27559 23.40711 40104 ft 449 kts 346°
2026-05-04 15:36 42.32661 23.37826 40096 ft 452 kts 328°
2026-05-04 15:36 42.37732 23.32779 40100 ft 453 kts 324°
2026-05-04 15:37 42.42792 23.27709 40098 ft 452 kts 324°
2026-05-04 15:37 42.47856 23.22640 40102 ft 452 kts 324°
2026-05-04 15:38 42.52914 23.17561 40094 ft 453 kts 324°
2026-05-04 15:38 42.57951 23.12494 40099 ft 453 kts 324°
2026-05-04 15:39 42.62380 23.06442 40095 ft 457 kts 304°
2026-05-04 15:39 42.64721 22.98412 40093 ft 463 kts 281°
2026-05-04 15:40 42.64961 22.94035 40093 ft 466 kts 271°
2026-05-04 15:40 42.64796 22.85201 40094 ft 466 kts 272°
2026-05-04 15:40 42.65114 22.80953 40096 ft 462 kts 284°
2026-05-04 15:41 42.66063 22.76772 40095 ft 458 kts 295°
2026-05-04 15:41 42.69119 22.69248 40107 ft 456 kts 298°
2026-05-04 15:41 42.70754 22.65606 39996 ft 452 kts 309°
2026-05-04 15:42 42.72895 22.62445 39682 ft 450 kts 320°
2026-05-04 15:42 42.75428 22.59957 39141 ft 449 kts 331°
2026-05-04 15:42 42.78259 22.58216 38316 ft 447 kts 342°
2026-05-04 15:42 42.81296 22.57281 37169 ft 447 kts 354°
2026-05-04 15:43 42.84411 22.57195 35842 ft 450 kts
2026-05-04 15:43 42.87507 22.57971 34427 ft 458 kts 17°
2026-05-04 15:43 42.90427 22.59576 32860 ft 457 kts 28°
2026-05-04 15:43 42.93077 22.61975 31303 ft 460 kts 40°
2026-05-04 15:44 42.95348 22.65086 29772 ft 466 kts 52°
2026-05-04 15:44 42.97135 22.68791 28132 ft 467 kts 64°
2026-05-04 15:44 42.98333 22.72871 26551 ft 463 kts 75°
2026-05-04 15:44 42.98899 22.77181 25085 ft 458 kts 86°
2026-05-04 15:45 42.98806 22.81504 23686 ft 454 kts 98°
2026-05-04 15:45 42.98051 22.85630 22283 ft 447 kts 109°
2026-05-04 15:45 42.96671 22.89372 21187 ft 435 kts 122°
2026-05-04 15:45 42.94783 22.92384 20616 ft 414 kts 136°
2026-05-04 15:46 42.92482 22.94533 20316 ft 401 kts 152°
2026-05-04 15:46 42.90730 22.95546 20202 ft 410 kts 158°
2026-05-04 15:46 42.87374 22.96935 20097 ft 410 kts 165°
2026-05-04 15:46 42.84586 22.97649 19667 ft 408 kts 171°
2026-05-04 15:47 42.82709 22.97853 18923 ft 412 kts 177°
2026-05-04 15:47 42.79826 22.97619 17705 ft 411 kts 184°
2026-05-04 15:47 42.77047 22.97752 16959 ft 390 kts 168°
2026-05-04 15:47 42.74493 22.98906 16545 ft 387 kts 150°
2026-05-04 15:48 42.72318 23.00987 16286 ft 380 kts 133°
2026-05-04 15:48 42.70461 23.03521 16151 ft 381 kts 137°
2026-05-04 15:48 42.65532 23.06120 16090 ft 393 kts 174°
2026-05-04 15:49 42.62795 23.05785 15881 ft 394 kts 192°
2026-05-04 15:49 42.60260 23.04368 15393 ft 395 kts 210°
2026-05-04 15:49 42.58155 23.02025 14711 ft 391 kts 226°
2026-05-04 15:49 42.56260 22.99397 13966 ft 387 kts 226°
2026-05-04 15:50 42.54390 22.96797 13149 ft 383 kts 226°
2026-05-04 15:50 42.52538 22.94231 12478 ft 379 kts 226°
2026-05-04 15:50 42.50845 22.91523 12176 ft 377 kts 239°
2026-05-04 15:50 42.49845 22.88260 11869 ft 374 kts 259°
2026-05-04 15:51 42.49705 22.84798 11567 ft 366 kts 279°
2026-05-04 15:51 42.50390 22.81522 11267 ft 352 kts 297°
2026-05-04 15:51 42.51566 22.78863 10978 ft 328 kts 313°
2026-05-04 15:51 42.53215 22.76888 10691 ft 305 kts 332°
2026-05-04 15:52 42.55084 22.75793 10385 ft 284 kts 349°
2026-05-04 15:52 42.56988 22.75505 10114 ft 271 kts
2026-05-04 15:52 42.58942 22.75978 9806 ft 290 kts 20°
2026-05-04 15:52 42.60693 22.77165 9486 ft 275 kts 35°
2026-05-04 15:53 42.62065 22.78872 9175 ft 264 kts 50°
2026-05-04 15:53 42.63052 22.80988 8862 ft 268 kts 63°
2026-05-04 15:53 42.63606 22.83400 8553 ft 267 kts 77°
2026-05-04 15:53 42.63944 22.85879 8253 ft 268 kts 77°
2026-05-04 15:54 42.64302 22.88358 8053 ft 266 kts 77°
2026-05-04 15:54 42.64778 22.90776 8008 ft 266 kts 68°
2026-05-04 15:54 42.65489 22.93091 7996 ft 264 kts 65°
2026-05-04 15:54 42.66183 22.95312 7995 ft 267 kts 66°
2026-05-04 15:55 42.66876 22.97530 7999 ft 266 kts 65°
2026-05-04 15:55 42.67594 22.99848 8010 ft 267 kts 66°
2026-05-04 15:55 42.68314 23.02146 7966 ft 266 kts 65°
2026-05-04 15:55 42.69034 23.04473 7671 ft 267 kts 65°
2026-05-04 15:56 42.69762 23.06815 7060 ft 270 kts 65°
2026-05-04 15:56 42.70492 23.09176 6397 ft 269 kts 65°
2026-05-04 15:56 42.70998 23.11546 6089 ft 254 kts 84°
2026-05-04 15:56 42.70915 23.13848 6001 ft 232 kts 91°
2026-05-04 15:57 42.70834 23.15929 5997 ft 210 kts 89°
2026-05-04 15:57 42.70781 23.17824 6005 ft 192 kts 89°
2026-05-04 15:57 42.70735 23.19571 5994 ft 179 kts 88°
2026-05-04 15:57 42.70689 23.21271 6009 ft 181 kts 89°
2026-05-04 15:58 42.70630 23.22967 6007 ft 181 kts 89°
2026-05-04 15:58 42.70569 23.24676 5958 ft 179 kts 90°
2026-05-04 15:58 42.70500 23.26300 5773 ft 163 kts 90°
2026-05-04 15:58 42.70433 23.27809 5356 ft 159 kts 90°
2026-05-04 15:59 42.70360 23.29354 4707 ft 170 kts 90°
2026-05-04 15:59 42.70278 23.31009 3836 ft 187 kts 91°
2026-05-04 15:59 42.70188 23.32778 3104 ft 187 kts 91°
2026-05-04 15:59 42.70085 23.34500 2617 ft 176 kts 92°
2026-05-04 16:00 42.69992 23.36072 2355 ft 157 kts 92°
2026-05-04 16:00 42.69904 23.37458 2148 ft 141 kts 92°
2026-05-04 16:00 42.69827 23.38754 1965 ft 133 kts 93°
2026-05-04 16:00 42.69747 23.40017 1777 ft 134 kts 93°
2026-05-04 16:01 42.69680 23.41166 1761 ft 105 kts 92°
2026-05-04 16:01 42.69642 23.41883 1759 ft 53 kts 95°
2026-05-04 16:01 42.69614 23.42320 1751 ft 39 kts 95°
2026-05-04 16:01 42.69559 23.42590 1761 ft 29 kts 117°
2026-05-04 16:02 42.69462 23.42751 1764 ft 17 kts 157°
2026-05-04 16:02 42.69443 23.42751 1762 ft 3 kts 182°
2026-05-04 16:02 42.69414 23.42538 1760 ft 19 kts 275°
2026-05-04 16:03 42.69422 23.42353 1762 ft 21 kts 274°
2026-05-04 16:03 42.69433 23.42153 1759 ft 22 kts 274°
2026-05-04 16:03 42.69447 23.41929 1762 ft 24 kts 275°
2026-05-04 16:03 42.69461 23.41695 1759 ft 26 kts 275°
2026-05-04 16:04 42.69476 23.41449 1761 ft 27 kts 274°
2026-05-04 16:04 42.69409 23.41204 1759 ft 15 kts 191°
2026-05-04 16:04 42.69301 23.41173 1753 ft 17 kts 192°
2026-05-04 16:05 42.69198 23.41144 1750 ft 6 kts 191°
2026-05-04 16:05 42.69145 23.41126 1751 ft 9 kts 192°
2026-05-04 16:05 42.69066 23.41149 1754 ft 0 kts 163°
2026-05-04 16:06 42.69062 23.41151 1754 ft 5 kts 163°
2026-05-04 16:06 42.69052 23.41155 1750 ft 0 kts 163°